| time (UTC) | temp F | wind direction | speed knots | gust knots | rain 1hr in | rain 24hr in | rain mn in | humidity % | barometer mb |
| 20260507180743 | 78 | 350 | 3.5 | 7.8 | 0.00 | 0.00 | 0.00 | 89 | 1007.9 |
| 20260507180018 | 79 | 355 | 3.5 | 7.8 | 0.00 | 0.00 | 0.00 | 88 | 1007.9 |
| 20260507175512 | 79 | 350 | 3.5 | 7.8 | 0.00 | 0.00 | 0.00 | 88 | 1008.0 |
| 20260507175014 | 79 | 339 | 3.5 | 7.8 | 0.00 | 0.00 | 0.00 | 89 | 1008.1 |
| 20260507174512 | 79 | 350 | 2.6 | 7.0 | 0.00 | 0.00 | 0.00 | 88 | 1008.2 |
| 20260507174010 | 79 | 18 | 2.6 | 9.6 | 0.00 | 0.00 | 0.00 | 88 | 1008.2 |
| 20260507173511 | 79 | 320 | 3.5 | 9.6 | 0.00 | 0.00 | 0.00 | 88 | 1008.3 |
| 20260507172947 | 79 | 318 | 3.5 | 8.7 | 0.00 | 0.00 | 0.00 | 87 | 1008.3 |
| 20260507172446 | 79 | 0 | 3.5 | 7.8 | 0.00 | 0.00 | 0.00 | 87 | 1008.3 |
| 20260507171945 | 80 | 355 | 2.6 | 7.8 | 0.00 | 0.00 | 0.00 | 87 | 1008.4 |
| 20260507171445 | 80 | 0 | 3.5 | 7.8 | 0.00 | 0.00 | 0.00 | 87 | 1008.4 |
| 20260507171206 | 80 | 13 | 2.6 | 7.8 | 0.00 | 0.00 | 0.00 | 86 | 1008.3 |
| 20260507170442 | 80 | 293 | 3.5 | 9.6 | 0.00 | 0.00 | 0.00 | 87 | 1008.5 |
| 20260507165942 | 79 | 350 | 3.5 | 9.6 | 0.00 | 0.00 | 0.00 | 87 | 1008.4 |
| 20260507165709 | 80 | 5 | 3.5 | 10.4 | 0.00 | 0.00 | 0.00 | 87 | 1008.5 |
| 20260507164937 | 80 | 355 | 3.5 | 10.4 | 0.00 | 0.00 | 0.00 | 86 | 1008.5 |
| 20260507164434 | 80 | 350 | 3.5 | 7.8 | 0.00 | 0.00 | 0.00 | 86 | 1008.7 |
| 20260507163936 | 80 | 7 | 2.6 | 7.0 | 0.00 | 0.00 | 0.00 | 87 | 1008.9 |
| 20260507163435 | 80 | 350 | 2.6 | 7.8 | 0.00 | 0.00 | 0.00 | 87 | 1009.0 |
| 20260507162939 | 80 | 355 | 2.6 | 7.8 | 0.00 | 0.00 | 0.00 | 87 | 1009.1 |
| 20260507162435 | 80 | 5 | 2.6 | 7.8 | 0.00 | 0.00 | 0.00 | 88 | 1009.2 |
| 20260507161937 | 80 | 350 | 2.6 | 8.7 | 0.00 | 0.00 | 0.00 | 88 | 1009.4 |
| 20260507161427 | 80 | 342 | 2.6 | 9.6 | 0.00 | 0.00 | 0.00 | 87 | 1009.4 |
| 20260507160930 | 79 | 0 | 3.5 | 9.6 | 0.00 | 0.00 | 0.00 | 89 | 1009.6 |
| 20260507160428 | 79 | 341 | 3.5 | 8.7 | 0.00 | 0.00 | 0.00 | 90 | 1009.7 |
| 20260507155923 | 79 | 338 | 2.6 | 7.8 | 0.00 | 0.00 | 0.00 | 89 | 1009.8 |
| 20260507155424 | 79 | 311 | 2.6 | 8.7 | 0.00 | 0.00 | 0.00 | 89 | 1010.0 |
| 20260507155151 | 79 | 355 | 3.5 | 8.7 | 0.00 | 0.00 | 0.00 | 89 | 1010.0 |
| 20260507154423 | 79 | 350 | 3.5 | 8.7 | 0.00 | 0.00 | 0.00 | 89 | 1010.1 |
| 20260507153922 | 79 | 6 | 2.6 | 7.0 | 0.00 | 0.00 | 0.00 | 88 | 1010.1 |
| 20260507153423 | 79 | 355 | 1.7 | 4.3 | 0.00 | 0.00 | 0.00 | 90 | 1010.2 |
| 20260507153146 | 79 | 0 | 1.7 | 9.6 | 0.00 | 0.00 | 0.00 | 90 | 1010.4 |
| 20260507152420 | 78 | 7 | 2.6 | 9.6 | 0.00 | 0.00 | 0.00 | 91 | 1010.6 |
| 20260507151915 | 78 | 346 | 2.6 | 9.6 | 0.00 | 0.00 | 0.00 | 91 | 1010.7 |
| 20260507151415 | 78 | 355 | 3.5 | 9.6 | 0.00 | 0.00 | 0.00 | 90 | 1010.8 |
| 20260507150915 | 78 | 343 | 2.6 | 7.0 | 0.00 | 0.00 | 0.00 | 91 | 1011.0 |
| 20260507150400 | 78 | 0 | 2.6 | 7.8 | 0.00 | 0.00 | 0.00 | 93 | 1011.1 |
| 20260507145900 | 77 | 350 | 3.5 | 8.7 | 0.00 | 0.00 | 0.00 | 94 | 1011.3 |
| 20260507145356 | 77 | 0 | 3.5 | 8.7 | 0.00 | 0.00 | 0.00 | 94 | 1011.4 |
| 20260507144855 | 76 | 355 | 2.6 | 8.7 | 0.00 | 0.00 | 0.00 | 94 | 1011.5 |
| 20260507144357 | 76 | 334 | 2.6 | 8.7 | 0.00 | 0.00 | 0.00 | 93 | 1011.6 |
| 20260507144113 | 77 | 12 | 2.6 | 7.8 | 0.00 | 0.00 | 0.00 | 94 | 1011.8 |
| 20260507143358 | 77 | 330 | 3.5 | 7.8 | 0.00 | 0.00 | 0.00 | 93 | 1011.9 |
| 20260507142856 | 77 | 0 | 2.6 | 7.8 | 0.00 | 0.00 | 0.00 | 92 | 1012.0 |
| 20260507142348 | 77 | 4 | 1.7 | 4.3 | 0.00 | 0.00 | 0.00 | 92 | 1012.1 |
| 20260507141845 | 77 | 345 | 1.7 | 4.3 | 0.00 | 0.00 | 0.00 | 92 | 1012.2 |
| 20260507141346 | 77 | 319 | 1.7 | 6.1 | 0.00 | 0.00 | 0.00 | 92 | 1012.3 |
| 20260507140842 | 77 | 0 | 1.7 | 6.1 | 0.00 | 0.00 | 0.00 | 92 | 1012.3 |
| 20260507140346 | 77 | 15 | 1.7 | 3.5 | 0.00 | 0.00 | 0.00 | 92 | 1012.5 |
| 20260507140112 | 77 | 345 | 1.7 | 5.2 | 0.00 | 0.00 | 0.00 | 93 | 1012.6 |
| 20260507135345 | 77 | 0 | 2.6 | 7.0 | 0.00 | 0.00 | 0.00 | 92 | 1012.7 |
| 20260507134826 | 77 | 355 | 2.6 | 7.0 | 0.00 | 0.00 | 0.00 | 92 | 1012.8 |
| 20260507134325 | 77 | 0 | 2.6 | 5.2 | 0.00 | 0.00 | 0.00 | 93 | 1012.9 |
| 20260507134040 | 77 | 8 | 2.6 | 5.2 | 0.00 | 0.00 | 0.00 | 92 | 1012.8 |
| 20260507133317 | 77 | 350 | 2.6 | 5.2 | 0.00 | 0.00 | 0.00 | 92 | 1012.9 |
| 20260507132814 | 77 | 350 | 2.6 | 8.7 | 0.00 | 0.00 | 0.00 | 92 | 1013.1 |
| 20260507132548 | 77 | 11 | 2.6 | 8.7 | 0.00 | 0.00 | 0.00 | 91 | 1013.2 |
| 20260507131814 | 77 | 10 | 2.6 | 6.1 | 0.00 | 0.00 | 0.00 | 91 | 1013.4 |
| 20260507131312 | 77 | 5 | 1.7 | 4.3 | 0.00 | 0.00 | 0.00 | 92 | 1013.4 |
| 20260507130811 | 76 | 355 | 1.7 | 5.2 | 0.00 | 0.00 | 0.00 | 92 | 1013.4 |
| 20260507130312 | 76 | 355 | 1.7 | 5.2 | 0.00 | 0.00 | 0.00 | 92 | 1013.4 |
| 20260507125813 | 76 | 6 | 1.7 | 4.3 | 0.00 | 0.00 | 0.00 | 93 | 1013.4 |
| 20260507125312 | 76 | 0 | 1.7 | 6.1 | 0.00 | 0.00 | 0.00 | 93 | 1013.5 |
| 20260507124809 | 76 | 355 | 1.7 | 6.1 | 0.00 | 0.00 | 0.00 | 93 | 1013.6 |
| 20260507124307 | 76 | 0 | 1.7 | 5.2 | 0.00 | 0.00 | 0.00 | 93 | 1013.6 |
| 20260507123809 | 76 | 17 | 1.7 | 5.2 | 0.00 | 0.00 | 0.00 | 93 | 1013.6 |
| 20260507123514 | 76 | 350 | 1.7 | 5.2 | 0.00 | 0.00 | 0.00 | 93 | 1013.6 |
| 20260507122752 | 76 | 355 | 2.6 | 5.2 | 0.00 | 0.00 | 0.00 | 94 | 1013.6 |
| 20260507122451 | 76 | 4 | 1.7 | 5.2 | 0.00 | 0.00 | 0.00 | 94 | 1013.6 |
| 20260507121657 | 76 | 4 | 2.6 | 7.0 | 0.00 | 0.00 | 0.00 | 94 | 1013.7 |
| 20260507121136 | 76 | 355 | 2.6 | 7.0 | 0.00 | 0.00 | 0.00 | 94 | 1013.6 |
| 20260507120636 | 76 | 0 | 1.7 | 4.3 | 0.00 | 0.00 | 0.00 | 94 | 1013.7 |
| 20260507120117 | 76 | 355 | 1.7 | 4.3 | 0.00 | 0.00 | 0.00 | 94 | 1013.6 |
| 20260507115620 | 76 | 12 | 1.7 | 3.5 | 0.00 | 0.00 | 0.00 | 94 | 1013.6 |
| 20260507115116 | 76 | 4 | 1.7 | 5.2 | 0.00 | 0.00 | 0.00 | 95 | 1013.6 |
| 20260507114834 | 76 | 355 | 1.7 | 5.2 | 0.00 | 0.00 | 0.00 | 94 | 1013.7 |
| 20260507114333 | 76 | 334 | 0.9 | 3.5 | 0.00 | 0.00 | 0.00 | 95 | 1013.7 |
| 20260507113612 | 76 | 330 | 1.7 | 3.5 | 0.00 | 0.00 | 0.00 | 95 | 1013.8 |
| 20260507113114 | 75 | 6 | 0.9 | 3.5 | 0.00 | 0.00 | 0.00 | 95 | 1013.7 |
| 20260507112609 | 75 | 355 | 0.9 | 3.5 | 0.00 | 0.00 | 0.00 | 96 | 1013.9 |
| 20260507112107 | 75 | 355 | 0.9 | 3.5 | 0.00 | 0.00 | 0.00 | 96 | 1013.9 |
| 20260507111606 | 75 | 340 | 0.9 | 6.1 | 0.00 | 0.00 | 0.00 | 96 | 1013.8 |
| 20260507111106 | 75 | 343 | 0.9 | 6.1 | 0.00 | 0.00 | 0.00 | 96 | 1013.9 |
| 20260507110605 | 75 | 341 | 0.9 | 4.3 | 0.00 | 0.00 | 0.00 | 97 | 1013.7 |
| 20260507110108 | 75 | 341 | 1.7 | 4.3 | 0.00 | 0.00 | 0.00 | 97 | 1013.7 |
| 20260507105539 | 75 | 350 | 1.7 | 2.6 | 0.00 | 0.00 | 0.00 | 97 | 1013.6 |
| 20260507105026 | 75 | 308 | 0.9 | 2.6 | 0.00 | 0.00 | 0.00 | 97 | 1013.6 |
| 20260507104446 | 75 | 331 | 0.0 | 0.9 | 0.00 | 0.00 | 0.00 | 97 | 1013.6 |
| 20260507103919 | 74 | 331 | 0.9 | 2.6 | 0.00 | 0.00 | 0.00 | 98 | 1013.7 |
| 20260507103353 | 74 | 331 | 1.7 | 2.6 | 0.00 | 0.00 | 0.00 | 98 | 1013.6 |
| 20260507102829 | 74 | 337 | 0.9 | 2.6 | 0.00 | 0.00 | 0.00 | 98 | 1013.5 |
| 20260507102306 | 74 | 337 | 0.0 | 2.6 | 0.00 | 0.00 | 0.00 | 99 | 1013.5 |
| 20260507101737 | 74 | 337 | 0.9 | 3.5 | 0.00 | 0.00 | 0.00 | 99 | 1013.6 |
| 20260507101432 | 74 | 336 | 0.9 | 3.5 | 0.00 | 0.00 | 0.00 | 99 | 1013.5 |
| 20260507100712 | 74 | 333 | 1.7 | 6.1 | 0.00 | 0.00 | 0.00 | 99 | 1013.5 |
| 20260507100214 | 74 | 339 | 0.9 | 6.1 | 0.00 | 0.00 | 0.00 | 100 | 1013.6 |
| 20260507095714 | 74 | 81 | 0.0 | 2.6 | 0.00 | 0.00 | 0.00 | 100 | 1013.5 |
| 20260507095213 | 74 | 83 | 0.0 | 2.6 | 0.00 | 0.00 | 0.00 | 100 | 1013.5 |
| 20260507094713 | 74 | 18 | 0.0 | 2.6 | 0.00 | 0.00 | 0.00 | 100 | 1013.6 |
| 20260507094212 | 74 | 18 | 0.0 | 1.7 | 0.00 | 0.00 | 0.00 | 100 | 1013.5 |
| 20260507093710 | 74 | 18 | 0.0 | 0.0 | 0.00 | 0.00 | 0.00 | 100 | 1013.5 |
| 20260507093210 | 74 | 18 | 0.0 | 0.0 | 0.00 | 0.00 | 0.00 | 100 | 1013.5 |
| 20260507092709 | 74 | 18 | 0.0 | 2.6 | 0.00 | 0.00 | 0.00 | 100 | 1013.5 |
| 20260507092202 | 74 | 18 | 0.0 | 2.6 | 0.00 | 0.00 | 0.00 | 100 | 1013.5 |
| 20260507091923 | 74 | 22 | 0.0 | 0.9 | 0.00 | 0.00 | 0.00 | 100 | 1013.4 |
| 20260507091204 | 74 | 22 | 0.0 | 0.0 | 0.00 | 0.00 | 0.00 | 100 | 1013.5 |
| 20260507090659 | 74 | 22 | 0.0 | 0.0 | 0.00 | 0.00 | 0.00 | 100 | 1013.4 |
| 20260507090201 | 74 | 22 | 0.0 | 1.7 | 0.00 | 0.00 | 0.00 | 100 | 1013.3 |
| 20260507085658 | 74 | 22 | 0.0 | 1.7 | 0.00 | 0.00 | 0.00 | 100 | 1013.3 |
| 20260507085153 | 74 | 0 | 0.0 | 0.0 | 0.00 | 0.00 | 0.00 | 100 | 1013.3 |
| 20260507084652 | 74 | 0 | 0.0 | 0.0 | 0.00 | 0.00 | 0.00 | 100 | 1013.3 |
| 20260507084148 | 74 | 0 | 0.0 | 0.0 | 0.00 | 0.00 | 0.00 | 100 | 1013.2 |
| 20260507083650 | 74 | 0 | 0.0 | 0.0 | 0.00 | 0.00 | 0.00 | 100 | 1013.1 |
| 20260507083145 | 74 | 0 | 0.0 | 0.0 | 0.00 | 0.00 | 0.00 | 100 | 1013.1 |
| 20260507082646 | 74 | 0 | 0.0 | 0.0 | 0.00 | 0.00 | 0.00 | 100 | 1013.1 |
| 20260507082411 | 74 | 0 | 0.0 | 0.0 | 0.00 | 0.00 | 0.00 | 100 | 1013.1 |
| 20260507081645 | 74 | 0 | 0.0 | 0.0 | 0.00 | 0.00 | 0.00 | 100 | 1013.1 |
| 20260507081145 | 74 | 0 | 0.0 | 0.0 | 0.00 | 0.00 | 0.00 | 100 | 1013.0 |
| 20260507080901 | 74 | 0 | 0.0 | 0.0 | 0.00 | 0.00 | 0.00 | 100 | 1012.9 |
| 20260507080140 | 74 | 0 | 0.0 | 0.0 | 0.00 | 0.00 | 0.00 | 100 | 1012.9 |
| 20260507075642 | 74 | 0 | 0.0 | 0.0 | 0.00 | 0.00 | 0.00 | 100 | 1012.9 |
| 20260507075142 | 74 | 0 | 0.0 | 0.0 | 0.00 | 0.00 | 0.00 | 100 | 1012.9 |
| 20260507074637 | 74 | 0 | 0.0 | 0.0 | 0.00 | 0.00 | 0.00 | 100 | 1013.0 |
| 20260507074137 | 74 | 0 | 0.0 | 0.0 | 0.00 | 0.00 | 0.00 | 100 | 1013.1 |
| 20260507073640 | 74 | 0 | 0.0 | 0.0 | 0.00 | 0.00 | 0.00 | 100 | 1013.1 |
| 20260507073358 | 74 | 0 | 0.0 | 0.0 | 0.00 | 0.00 | 0.00 | 100 | 1013.2 |
| 20260507072851 | 74 | 0 | 0.0 | 0.0 | 0.00 | 0.00 | 0.00 | 100 | 1013.3 |
| 20260507072127 | 74 | 0 | 0.0 | 0.0 | 0.00 | 0.00 | 0.00 | 100 | 1013.3 |
| 20260507071629 | 74 | 0 | 0.0 | 0.0 | 0.00 | 0.00 | 0.00 | 100 | 1013.3 |
| 20260507071330 | 74 | 0 | 0.0 | 0.0 | 0.00 | 0.00 | 0.00 | 100 | 1013.3 |
| 20260507070609 | 74 | 0 | 0.0 | 0.0 | 0.00 | 0.00 | 0.00 | 100 | 1013.4 |
| 20260507070059 | 74 | 0 | 0.0 | 0.0 | 0.00 | 0.00 | 0.00 | 100 | 1013.4 |
| 20260507065559 | 74 | 0 | 0.0 | 0.0 | 0.00 | 0.00 | 0.00 | 100 | 1013.5 |
| 20260507065308 | 74 | 0 | 0.0 | 0.0 | 0.00 | 0.00 | 0.00 | 100 | 1013.6 |
| 20260507065148 | 74 | 0 | 0.0 | 0.0 | 0.00 | 0.00 | 0.00 | 100 | 1013.5 |
| 20260507064317 | 74 | 0 | 0.0 | 0.0 | 0.00 | 0.00 | 0.00 | 100 | 1013.6 |
| 20260507063550 | 74 | 0 | 0.0 | 0.0 | 0.00 | 0.00 | 0.00 | 100 | 1013.7 |
| 20260507063308 | 74 | 0 | 0.0 | 0.0 | 0.00 | 0.00 | 0.00 | 100 | 1013.8 |
| 20260507062546 | 74 | 0 | 0.0 | 0.0 | 0.00 | 0.00 | 0.00 | 100 | 1013.8 |
| 20260507062041 | 74 | 0 | 0.0 | 0.9 | 0.00 | 0.00 | 0.00 | 99 | 1014.0 |
| 20260507061541 | 74 | 0 | 0.0 | 0.9 | 0.00 | 0.00 | 0.00 | 99 | 1014.0 |
| 20260507061040 | 74 | 0 | 0.0 | 2.6 | 0.00 | 0.00 | 0.00 | 99 | 1014.1 |
| 20260507060536 | 74 | 0 | 0.0 | 2.6 | 0.00 | 0.00 | 0.00 | 99 | 1014.1 |
| 20260507060035 | 75 | 6 | 0.0 | 1.7 | 0.00 | 0.00 | 0.00 | 99 | 1014.1 |
| 20260507055759 | 75 | 6 | 0.0 | 0.9 | 0.00 | 0.00 | 0.00 | 99 | 1014.1 |
| 20260507055033 | 75 | 6 | 0.0 | 0.9 | 0.00 | 0.00 | 0.00 | 99 | 1014.4 |
| 20260507054506 | 75 | 6 | 0.0 | 0.9 | 0.00 | 0.00 | 0.00 | 99 | 1014.4 |
| 20260507053940 | 75 | 6 | 0.0 | 2.6 | 0.00 | 0.00 | 0.00 | 99 | 1014.3 |
| 20260507053437 | 75 | 6 | 0.0 | 2.6 | 0.00 | 0.00 | 0.00 | 99 | 1014.5 |
| 20260507052919 | 75 | 6 | 0.0 | 0.9 | 0.00 | 0.00 | 0.00 | 99 | 1014.6 |
| 20260507052421 | 75 | 6 | 0.0 | 0.0 | 0.00 | 0.00 | 0.00 | 99 | 1014.5 |
| 20260507051910 | 75 | 6 | 0.0 | 0.0 | 0.00 | 0.00 | 0.00 | 99 | 1014.7 |
| 20260507051624 | 75 | 6 | 0.9 | 1.7 | 0.00 | 0.00 | 0.00 | 98 | 1014.7 |
| 20260507051507 | 75 | 6 | 0.0 | 1.7 | 0.00 | 0.00 | 0.00 | 99 | 1014.7 |
| 20260507051149 | 75 | 6 | 0.9 | 1.7 | 0.00 | 0.00 | 0.00 | 98 | 1014.7 |
| 20260507050405 | 75 | 6 | 0.9 | 2.6 | 0.00 | 0.00 | 0.00 | 98 | 1014.7 |
| 20260507045902 | 75 | 6 | 0.0 | 2.6 | 0.00 | 0.00 | 0.00 | 98 | 1014.8 |
| 20260507045400 | 75 | 6 | 0.9 | 2.6 | 0.00 | 0.00 | 0.00 | 98 | 1015.0 |
| 20260507044900 | 75 | 6 | 0.9 | 2.6 | 0.00 | 0.00 | 0.00 | 98 | 1015.0 |
| 20260507044401 | 75 | 0 | 0.0 | 2.6 | 0.00 | 0.00 | 0.00 | 98 | 1015.1 |
| 20260507044125 | 75 | 350 | 0.0 | 1.7 | 0.00 | 0.00 | 0.00 | 98 | 1015.2 |
| 20260507043355 | 75 | 350 | 0.9 | 1.7 | 0.00 | 0.00 | 0.00 | 98 | 1015.1 |
| 20260507042851 | 75 | 350 | 0.9 | 5.2 | 0.00 | 0.00 | 0.00 | 98 | 1015.2 |
| 20260507042354 | 75 | 350 | 0.9 | 5.2 | 0.00 | 0.00 | 0.00 | 98 | 1015.2 |
| 20260507041839 | 75 | 0 | 0.0 | 1.7 | 0.00 | 0.00 | 0.00 | 98 | 1015.3 |
| 20260507041340 | 75 | 0 | 0.0 | 1.7 | 0.00 | 0.00 | 0.00 | 98 | 1015.2 |
| 20260507041306 | 75 | 0 | 0.0 | 2.6 | 0.00 | 0.00 | 0.00 | 98 | 1015.3 |
| 20260507040933 | 75 | 0 | 0.0 | 0.9 | 0.00 | 0.00 | 0.00 | 98 | 1015.3 |
| 20260507035834 | 75 | 0 | 0.9 | 3.5 | 0.00 | 0.00 | 0.00 | 98 | 1015.3 |
| 20260507035334 | 75 | 0 | 0.0 | 3.5 | 0.00 | 0.00 | 0.00 | 98 | 1015.4 |
| 20260507034832 | 75 | 0 | 0.0 | 1.7 | 0.00 | 0.00 | 0.00 | 98 | 1015.4 |
| 20260507034332 | 75 | 0 | 0.0 | 2.6 | 0.00 | 0.00 | 0.00 | 98 | 1015.3 |
| 20260507033826 | 75 | 0 | 0.0 | 2.6 | 0.00 | 0.00 | 0.00 | 98 | 1015.5 |
| 20260507033327 | 75 | 0 | 0.0 | 1.7 | 0.00 | 0.00 | 0.00 | 98 | 1015.5 |
| 20260507032824 | 75 | 0 | 0.0 | 1.7 | 0.00 | 0.00 | 0.00 | 98 | 1015.6 |
| 20260507032330 | 75 | 0 | 0.0 | 3.5 | 0.00 | 0.00 | 0.00 | 98 | 1015.6 |
| 20260507031801 | 75 | 0 | 0.9 | 3.5 | 0.00 | 0.00 | 0.00 | 98 | 1015.7 |
| 20260507031233 | 75 | 0 | 0.9 | 3.5 | 0.00 | 0.00 | 0.00 | 98 | 1015.7 |
| 20260507030728 | 75 | 0 | 0.9 | 3.5 | 0.00 | 0.00 | 0.00 | 98 | 1015.8 |
| 20260507030225 | 75 | 46 | 0.0 | 2.6 | 0.00 | 0.00 | 0.00 | 98 | 1015.8 |
| 20260507025728 | 75 | 50 | 0.0 | 2.6 | 0.00 | 0.00 | 0.00 | 98 | 1015.8 |
| 20260507025223 | 75 | 50 | 0.0 | 1.7 | 0.00 | 0.00 | 0.00 | 98 | 1015.8 |
| 20260507024722 | 75 | 46 | 0.0 | 1.7 | 0.00 | 0.00 | 0.00 | 98 | 1015.9 |
| 20260507024219 | 75 | 46 | 0.0 | 0.9 | 0.00 | 0.00 | 0.00 | 98 | 1015.9 |
| 20260507023942 | 75 | 46 | 0.0 | 0.0 | 0.00 | 0.00 | 0.00 | 98 | 1015.9 |
| 20260507023216 | 75 | 46 | 0.0 | 0.0 | 0.00 | 0.00 | 0.00 | 98 | 1016.0 |
| 20260507022713 | 75 | 46 | 0.0 | 0.0 | 0.00 | 0.00 | 0.00 | 98 | 1016.0 |
| 20260507022212 | 75 | 46 | 0.0 | 0.9 | 0.00 | 0.00 | 0.00 | 98 | 1016.1 |
| 20260507021710 | 75 | 46 | 0.0 | 0.9 | 0.00 | 0.00 | 0.00 | 98 | 1016.1 |
| 20260507021210 | 75 | 46 | 0.0 | 0.0 | 0.00 | 0.00 | 0.00 | 97 | 1016.1 |
| 20260507020708 | 75 | 46 | 0.0 | 0.0 | 0.00 | 0.00 | 0.00 | 97 | 1016.1 |
| 20260507020205 | 75 | 46 | 0.0 | 0.0 | 0.00 | 0.00 | 0.00 | 97 | 1016.1 |
| 20260507015701 | 75 | 46 | 0.0 | 1.7 | 0.00 | 0.00 | 0.00 | 97 | 1016.1 |
| 20260507015202 | 75 | 46 | 0.0 | 1.7 | 0.00 | 0.00 | 0.00 | 97 | 1016.2 |
| 20260507014655 | 75 | 46 | 0.0 | 1.7 | 0.00 | 0.00 | 0.00 | 97 | 1016.2 |
| 20260507014411 | 75 | 46 | 0.0 | 1.7 | 0.00 | 0.00 | 0.00 | 97 | 1016.3 |
| 20260507013649 | 75 | 43 | 0.0 | 1.7 | 0.00 | 0.00 | 0.00 | 97 | 1016.3 |
| 20260507013634 | 75 | 43 | 0.0 | 1.7 | 0.00 | 0.00 | 0.00 | 97 | 1016.2 |
| 20260507012910 | 75 | 43 | 0.0 | 1.7 | 0.00 | 0.00 | 0.00 | 97 | 1016.3 |
| 20260507012144 | 75 | 43 | 0.0 | 1.7 | 0.00 | 0.00 | 0.00 | 97 | 1016.3 |
| 20260507011643 | 75 | 43 | 0.0 | 1.7 | 0.00 | 0.00 | 0.00 | 97 | 1016.2 |
| 20260507011146 | 75 | 43 | 0.0 | 3.5 | 0.00 | 0.00 | 0.00 | 97 | 1016.4 |
| 20260507010638 | 75 | 43 | 0.0 | 3.5 | 0.00 | 0.00 | 0.00 | 97 | 1016.4 |
| 20260507010413 | 75 | 23 | 0.0 | 1.7 | 0.00 | 0.00 | 0.00 | 97 | 1016.4 |
| 20260507005650 | 75 | 23 | 0.0 | 1.7 | 0.00 | 0.00 | 0.00 | 97 | 1016.3 |
| 20260507005410 | 75 | 23 | 0.0 | 2.6 | 0.00 | 0.00 | 0.00 | 96 | 1016.4 |
| 20260507004631 | 75 | 23 | 0.0 | 2.6 | 0.00 | 0.00 | 0.00 | 96 | 1016.4 |
| 20260507004111 | 75 | 0 | 0.0 | 0.0 | 0.00 | 0.00 | 0.00 | 96 | 1016.6 |
| 20260507003546 | 75 | 0 | 0.0 | 0.0 | 0.00 | 0.00 | 0.00 | 96 | 1016.5 |
| 20260507003036 | 75 | 0 | 0.0 | 0.0 | 0.00 | 0.00 | 0.00 | 96 | 1016.5 |
| 20260507002530 | 75 | 0 | 0.0 | 1.7 | 0.00 | 0.00 | 0.00 | 96 | 1016.6 |
| 20260507002351 | 75 | 0 | 0.9 | 2.6 | 0.00 | 0.00 | 0.00 | 96 | 1016.7 |
| 20260507002322 | 75 | 0 | 0.9 | 2.6 | 0.00 | 0.00 | 0.00 | 96 | 1016.8 |
| 20260507001024 | 75 | 0 | 0.9 | 2.6 | 0.00 | 0.00 | 0.00 | 96 | 1016.7 |
| 20260507000521 | 75 | 0 | 0.9 | 2.6 | 0.00 | 0.00 | 0.00 | 96 | 1016.7 |
| 20260507000018 | 75 | 350 | 0.0 | 1.7 | 0.00 | 0.00 | 0.00 | 96 | 1016.8 |
| 20260506235517 | 75 | 350 | 0.0 | 1.7 | 0.00 | 0.00 | 0.00 | 96 | 1016.8 |
| 20260506235019 | 75 | 350 | 0.0 | 2.6 | 0.00 | 0.00 | 0.00 | 96 | 1016.9 |
| 20260506234518 | 75 | 350 | 0.0 | 2.6 | 0.00 | 0.00 | 0.00 | 96 | 1016.9 |
| 20260506234016 | 75 | 345 | 0.0 | 1.7 | 0.00 | 0.00 | 0.00 | 96 | 1016.8 |
| 20260506233520 | 75 | 345 | 0.0 | 0.9 | 0.00 | 0.00 | 0.00 | 96 | 1016.7 |
| 20260506232954 | 75 | 345 | 0.0 | 2.6 | 0.00 | 0.00 | 0.00 | 96 | 1016.7 |
| 20260506232427 | 75 | 345 | 0.0 | 2.6 | 0.00 | 0.00 | 0.00 | 96 | 1016.7 |
| 20260506231859 | 75 | 12 | 0.0 | 1.7 | 0.00 | 0.00 | 0.00 | 96 | 1016.6 |
| 20260506231332 | 75 | 12 | 0.9 | 2.6 | 0.00 | 0.00 | 0.00 | 96 | 1016.6 |
| 20260506230806 | 75 | 12 | 0.9 | 2.6 | 0.00 | 0.00 | 0.00 | 97 | 1016.5 |
| 20260506230239 | 75 | 13 | 0.9 | 2.6 | 0.00 | 0.00 | 0.00 | 96 | 1016.6 |
| 20260506225939 | 75 | 13 | 0.9 | 2.6 | 0.00 | 0.00 | 0.00 | 97 | 1016.5 |
| 20260506225143 | 75 | 10 | 0.0 | 1.7 | 0.00 | 0.00 | 0.00 | 97 | 1016.5 |
| 20260506224618 | 75 | 29 | 0.0 | 2.6 | 0.00 | 0.00 | 0.00 | 97 | 1016.5 |
| 20260506224049 | 75 | 29 | 0.9 | 3.5 | 0.00 | 0.00 | 0.00 | 97 | 1016.5 |
| 20260506223523 | 75 | 22 | 0.9 | 3.5 | 0.00 | 0.00 | 0.00 | 96 | 1016.4 |
| 20260506223011 | 75 | 6 | 1.7 | 4.3 | 0.00 | 0.00 | 0.00 | 97 | 1016.5 |
| 20260506222509 | 75 | 8 | 1.7 | 4.3 | 0.00 | 0.00 | 0.00 | 96 | 1016.5 |
| 20260506222011 | 75 | 355 | 1.7 | 3.5 | 0.00 | 0.00 | 0.00 | 96 | 1016.4 |
| 20260506221509 | 75 | 0 | 0.9 | 2.6 | 0.00 | 0.00 | 0.00 | 97 | 1016.4 |
| 20260506221011 | 75 | 355 | 0.9 | 3.5 | 0.00 | 0.00 | 0.00 | 97 | 1016.3 |
| 20260506220515 | 75 | 350 | 1.7 | 3.5 | 0.00 | 0.00 | 0.00 | 96 | 1016.2 |
| 20260506220012 | 75 | 327 | 0.9 | 2.6 | 0.00 | 0.00 | 0.00 | 97 | 1016.2 |
| 20260506215509 | 75 | 337 | 0.0 | 1.7 | 0.00 | 0.00 | 0.00 | 97 | 1016.2 |
| 20260506215009 | 75 | 337 | 0.9 | 2.6 | 0.00 | 0.00 | 0.00 | 97 | 1016.1 |
| 20260506214740 | 75 | 337 | 0.9 | 2.6 | 0.00 | 0.00 | 0.00 | 97 | 1016.0 |
| 20260506214235 | 75 | 335 | 0.0 | 1.7 | 0.00 | 0.00 | 0.00 | 97 | 1016.1 |
| 20260506213510 | 75 | 335 | 0.0 | 1.7 | 0.00 | 0.00 | 0.00 | 97 | 1016.2 |
| 20260506213007 | 75 | 335 | 0.0 | 2.6 | 0.00 | 0.00 | 0.00 | 97 | 1016.2 |
| 20260506212510 | 75 | 335 | 0.0 | 2.6 | 0.00 | 0.00 | 0.00 | 97 | 1016.1 |
| 20260506212004 | 75 | 335 | 0.9 | 2.6 | 0.00 | 0.00 | 0.00 | 97 | 1016.0 |
| 20260506211506 | 75 | 335 | 0.9 | 2.6 | 0.00 | 0.00 | 0.00 | 97 | 1016.1 |
| 20260506211006 | 75 | 334 | 0.9 | 4.3 | 0.00 | 0.00 | 0.00 | 97 | 1016.1 |
| 20260506210506 | 75 | 0 | 0.9 | 4.3 | 0.00 | 0.00 | 0.00 | 96 | 1016.1 |
| 20260506210007 | 76 | 350 | 0.9 | 3.5 | 0.00 | 0.00 | 0.00 | 96 | 1016.1 |
| 20260506205507 | 76 | 350 | 0.9 | 3.5 | 0.00 | 0.00 | 0.00 | 97 | 1016.0 |
| 20260506205005 | 76 | 350 | 0.9 | 3.5 | 0.00 | 0.00 | 0.00 | 96 | 1016.0 |
| 20260506204509 | 76 | 350 | 0.9 | 3.5 | 0.00 | 0.00 | 0.00 | 96 | 1015.8 |
| 20260506204006 | 76 | 350 | 0.9 | 2.6 | 0.00 | 0.00 | 0.00 | 96 | 1015.8 |
| 20260506203507 | 76 | 350 | 0.9 | 2.6 | 0.00 | 0.00 | 0.00 | 96 | 1015.7 |
| 20260506203005 | 76 | 350 | 0.9 | 2.6 | 0.00 | 0.00 | 0.00 | 96 | 1015.6 |
| 20260506202506 | 76 | 350 | 0.9 | 3.5 | 0.00 | 0.00 | 0.00 | 95 | 1015.6 |
| 20260506202007 | 76 | 350 | 0.9 | 3.5 | 0.00 | 0.00 | 0.00 | 95 | 1015.6 |
| 20260506201509 | 76 | 350 | 0.9 | 2.6 | 0.00 | 0.00 | 0.00 | 95 | 1015.6 |
| 20260506200959 | 77 | 350 | 0.9 | 2.6 | 0.00 | 0.00 | 0.00 | 95 | 1015.8 |
| 20260506200500 | 77 | 350 | 0.9 | 3.5 | 0.00 | 0.00 | 0.00 | 95 | 1015.7 |
| 20260506195959 | 77 | 350 | 0.9 | 3.5 | 0.00 | 0.00 | 0.00 | 95 | 1015.7 |
| 20260506195455 | 77 | 350 | 0.9 | 3.5 | 0.00 | 0.00 | 0.00 | 95 | 1015.7 |
| 20260506194957 | 76 | 350 | 0.9 | 3.5 | 0.00 | 0.00 | 0.00 | 95 | 1015.8 |
| 20260506194457 | 76 | 350 | 0.9 | 4.3 | 0.00 | 0.00 | 0.00 | 95 | 1015.9 |
| 20260506193951 | 76 | 350 | 0.9 | 4.3 | 0.00 | 0.00 | 0.00 | 95 | 1015.8 |
| 20260506193450 | 76 | 345 | 1.7 | 4.3 | 0.00 | 0.00 | 0.00 | 95 | 1015.8 |
| 20260506192945 | 76 | 328 | 1.7 | 4.3 | 0.00 | 0.00 | 0.00 | 95 | 1015.9 |
| 20260506192445 | 76 | 339 | 2.6 | 5.2 | 0.00 | 0.00 | 0.00 | 95 | 1015.9 |
| 20260506191947 | 76 | 343 | 1.7 | 5.2 | 0.00 | 0.00 | 0.00 | 95 | 1015.9 |
| 20260506191445 | 77 | 10 | 1.7 | 4.3 | 0.00 | 0.00 | 0.00 | 95 | 1015.9 |
| 20260506190943 | 77 | 6 | 1.7 | 4.3 | 0.00 | 0.00 | 0.00 | 95 | 1015.9 |
| 20260506190654 | 77 | 350 | 1.7 | 4.3 | 0.00 | 0.00 | 0.00 | 95 | 1016.0 |
| 20260506190157 | 77 | 355 | 0.9 | 2.6 | 0.00 | 0.00 | 0.00 | 95 | 1016.0 |
| 20260506185428 | 77 | 355 | 0.9 | 3.5 | 0.00 | 0.00 | 0.00 | 95 | 1016.1 |
| 20260506184927 | 77 | 355 | 1.7 | 3.5 | 0.00 | 0.00 | 0.00 | 95 | 1016.1 |
| 20260506184426 | 77 | 342 | 1.7 | 5.2 | 0.00 | 0.00 | 0.00 | 95 | 1016.2 |
| 20260506183918 | 77 | 0 | 1.7 | 5.2 | 0.00 | 0.00 | 0.00 | 95 | 1016.1 |
| 20260506183418 | 77 | 10 | 1.7 | 4.3 | 0.00 | 0.00 | 0.00 | 95 | 1016.1 |
| 20260506182919 | 77 | 355 | 1.7 | 4.3 | 0.00 | 0.00 | 0.00 | 95 | 1016.2 |
| 20260506182641 | 77 | 350 | 2.6 | 4.3 | 0.00 | 0.00 | 0.00 | 94 | 1016.3 |
| 20260506181916 | 77 | 355 | 1.7 | 4.3 | 0.00 | 0.00 | 0.00 | 94 | 1016.3 |
| 20260506181645 | 77 | 350 | 1.7 | 4.3 | 0.00 | 0.00 | 0.00 | 95 | 1016.2 |
| 20260506180913 | 77 | 6 | 1.7 | 4.3 | 0.00 | 0.00 | 0.00 | 95 | 1016.4 |